Location: Altoona
(40.5167°N, 78.4000°W)
Time: 00:51:32
(UTC-04:00)

Cosmos 1066 Rocket - Pass Details

Date: 21 August 2017
Orbit: 799 x 894 km, 81.2° (Epoch: 23 September)

Event Time Altitude Azimuth Distance (km) Brightness Sun altitude
Rises 22:32:58 0° 348° (NNW) 3,333 8.2 -25.5°
Reaches altitude 10° 22:35:20 10° 347° (NNW) 2,407 7.3 -25.8°
Maximum altitude 22:40:46 77° 263° (W) 851 4.1 -26.5°
Enters shadow 22:41:26 67° 207° (SSW) 896 4.1 -26.6°
